Location: Castillon
(43.0896°N, 0.2156°E)
Time: 19:31:31
(UTC+00:00)

Cosmos 1741 Rocket - Pass Details

Date: 16 June 2021
Orbit: 761 x 783 km, 74.0° (Epoch: 31 July)

Event Time Altitude Azimuth Distance (km) Brightness Sun altitude
Rises 21:36:44 0° 337° (NNW) 3,245 8.9 -15.8°
Reaches altitude 10° 21:39:07 10° 335° (NNW) 2,318 7.8 -16.1°
Maximum altitude 21:44:20 68° 253° (WSW) 830 4.2 -16.6°
Enters shadow 21:47:27 25° 176° (S) 1,534 5.1 -16.9°
